Location: Yellowknife
(62.4500°N, 114.3500°W)
Time: 09:19:17
(UTC-07:00)

Amateur Radio Satellites - All Passes

Search period start: 29 January 2015 08:49
Search period end: 30 January 2015 08:49
Location: Yellowknife, 62.4500°N, 114.3500°W

Satellite Date Start Highest point End Downlink Frequencies (MHz)
Time Altitude Azimuth
AAUSAT CUBESAT 2 29 Jan 08:49:26 08:52:17 18° 85° (E) 08:55:12 437.432
YUBILEINY 29 Jan 08:49:56 08:57:43 37° 280° (W) 09:05:25 435.215
Oscar 19 29 Jan 08:51:15 08:52:36 11° 15° (NNE) 08:54:02 437.125/150
RS-15 29 Jan 08:53:37 09:04:39 86° 341° (NNW) 09:16:04 29.354- 29.394
GONETS M04 29 Jan 09:00:08 09:06:48 24° 21° (NNE) 09:13:32
CUSAT 1 29 Jan 09:00:46 09:07:12 23° 336° (NNW) 09:12:57 437.405
CUTE 1.7 + AOD 2 29 Jan 09:01:04 09:04:48 29° 92° (E) 09:08:32 437.475
BUGSAT 1 29 Jan 09:01:07 09:04:36 26° 52° (NE) 09:08:09 437.445
Oscar 11 29 Jan 09:03:04 09:05:29 15° 81° (E) 09:08:00 145.826/435.025
POLYITAN 1 29 Jan 09:03:40 09:07:31 32° 55° (NE) 09:11:26 437.675
UNISAT 6 29 Jan 09:06:47 09:11:18 46° 60° (ENE) 09:15:46 437.425
ITAMSAT 1 29 Jan 09:08:22 09:09:14 10° 7° (N) 09:10:07 435.822/435.867
POPSAT HIP 1 29 Jan 09:23:26 09:27:28 41° 60° (ENE) 09:31:35 437.405
DUCHIFAT 1 29 Jan 09:26:04 09:30:07 42° 60° (ENE) 09:34:14 145.980
SEEDS 29 Jan 09:31:37 09:35:40 42° 98° (E) 09:39:41 437.485
Cubesat XI-IV 29 Jan 09:31:47 09:36:22 29° 314° (NW) 09:40:54 437.490
AIST 2 29 Jan 09:32:18 09:36:40 82° 20° (NNE) 09:41:00 435.215
BEESAT 2 29 Jan 09:36:38 09:40:51 73° 212° (SSW) 09:45:03 435.950
UKube-1 29 Jan 09:38:15 09:41:06 17° 85° (E) 09:44:03 .
ANTELSAT 29 Jan 09:42:32 09:47:15 76° 69° (ENE) 09:51:55 437.575/2403.000
CUBEBUG 2 29 Jan 09:45:06 09:48:55 24° 87° (E) 09:52:42 437.445
TIGRISAT 29 Jan 09:50:15 09:54:59 83° 70° (ENE) 09:59:41 435.000
BEESAT 3 29 Jan 09:50:48 09:54:57 61° 215° (SW) 09:59:04 437.485
AO-7 29 Jan 09:51:31 09:58:19 29° 350° (N) 10:05:05 29.400- 29.500
CUTE-I 29 Jan 09:51:54 09:56:11 24° 318° (NW) 10:00:24 437.470
ZACube-1 29 Jan 09:52:43 09:56:10 21° 86° (E) 09:59:37 437.345
HO-68 29 Jan 09:54:21 10:01:30 64° 105° (ESE) 10:08:38 435.675
HUMSAT D 29 Jan 09:55:59 09:58:22 15° 81° (E) 10:00:51 437.325/437.525
COMPASS 1 29 Jan 09:58:08 10:02:18 58° 102° (ESE) 10:06:26 437.405
DX 1 29 Jan 09:58:43 10:02:18 24° 90° (E) 10:05:56 434.975-435.025
NANOSAT C BR1 29 Jan 10:00:23 10:04:41 72° 68° (ENE) 10:09:00 145.865
PCSat 29 Jan 10:03:17 10:08:38 54° 7° (N) 10:14:00 145.827
Gurwin Techsat 1B 29 Jan 10:03:50 10:05:42 12° 16° (NNE) 10:07:39 435.225
FUNcube-1 29 Jan 10:04:33 10:08:17 25° 89° (E) 10:11:59 145.935
CINEMA 3 29 Jan 10:09:40 10:14:34 50° 99° (E) 10:19:15 145.822/145.860
GOMX 1 29 Jan 10:10:58 10:16:33 87° 105° (ESE) 10:21:58 467.674
CANX-2 29 Jan 10:12:37 10:16:54 84° 291° (WNW) 10:21:09 2200.000
QB50P2 29 Jan 10:14:43 10:19:03 90° 78° (ENE) 10:23:26 145.880/145.840
BRITE-PL 29 Jan 10:15:46 10:21:31 75° 293° (WNW) 10:27:10 437.365/2234.400
DANDE 29 Jan 10:17:11 10:23:12 21° 353° (N) 10:28:40 436.750
DELFI C3 29 Jan 10:19:23 10:23:15 40° 98° (E) 10:27:06 145.870
DOVE 4 29 Jan 10:23:02 10:28:26 85° 106° (ESE) 10:33:37 437.250
AISAT 29 Jan 10:23:32 10:26:53 20° 87° (E) 10:30:19 437.250
QB50P1 29 Jan 10:24:04 10:28:24 80° 253° (WSW) 10:32:45 145.935-145.965
AAUSAT CUBESAT 2 29 Jan 10:24:27 10:28:40 83° 107° (ESE) 10:32:50 437.432
UWE-3 29 Jan 10:24:54 10:29:15 39° 96° (E) 10:33:28 435.000/436.395/437.385
Oscar 19 29 Jan 10:26:34 10:30:18 21° 39° (NE) 10:34:06 437.125/150
ESTCUBE 1 29 Jan 10:27:15 10:29:18 13° 79° (E) 10:31:32 437.505/2401.250
JAS-2 29 Jan 10:30:00 10:31:33 11° 348° (NNW) 10:33:04 435.910
BUGSAT 1 29 Jan 10:35:36 10:39:46 77° 253° (WSW) 10:44:01 437.445
CUTE 1.7 + AOD 2 29 Jan 10:36:51 10:41:05 61° 293° (WNW) 10:45:15 437.475
Oscar 11 29 Jan 10:38:15 10:42:36 65° 104° (ESE) 10:46:53 145.826/435.025
POLYITAN 1 29 Jan 10:38:59 10:43:18 62° 256° (WSW) 10:47:38 437.675
UNISAT 6 29 Jan 10:43:38 10:48:10 45° 262° (W) 10:52:40 437.425
ITAMSAT 1 29 Jan 10:43:45 10:46:54 17° 31° (NNE) 10:50:08 435.822/435.867
CUSAT 1 29 Jan 10:47:46 10:53:08 19° 2° (N) 10:57:57 437.405
YUBILEINY 29 Jan 10:48:20 10:51:58 13° 306° (NW) 10:55:17 435.215
VELOX 1 29 Jan 10:51:31 10:55:29 30° 93° (E) 10:59:28 145.980
GONETS M04 29 Jan 10:58:14 11:06:28 44° 51° (NE) 11:14:43
AIST 1 29 Jan 10:58:19 11:01:31 21° 85° (E) 11:04:49
POPSAT HIP 1 29 Jan 10:59:15 11:03:25 45° 261° (W) 11:07:37 437.405
CUBEBUG 1 29 Jan 10:59:53 11:03:10 20° 86° (E) 11:06:32 437.445
DUCHIFAT 1 29 Jan 11:01:54 11:06:02 43° 261° (W) 11:10:12 145.980
50 SAT 29 Jan 11:06:21 11:10:09 35° 96° (E) 11:13:54 437.505
RS-15 29 Jan 11:06:35 11:17:43 82° 13° (NNE) 11:29:18 29.354- 29.394
SEEDS 29 Jan 11:07:33 11:11:34 42° 299° (WNW) 11:15:31 437.485
AIST 2 29 Jan 11:11:03 11:15:08 41° 224° (SW) 11:19:09 435.215
Cubesat XI-IV 29 Jan 11:12:22 11:15:04 14° 338° (NNW) 11:17:42 437.490
UKube-1 29 Jan 11:13:40 11:18:04 74° 107° (ESE) 11:22:27 .
BEESAT 2 29 Jan 11:15:09 11:18:38 25° 232° (SW) 11:22:02 435.950
SO-50 29 Jan 11:20:25 11:24:08 24° 125° (SE) 11:28:01 436.795
ANTELSAT 29 Jan 11:20:31 11:24:32 27° 270° (W) 11:28:30 437.575/2403.000
CUBEBUG 2 29 Jan 11:21:29 11:26:14 81° 290° (WNW) 11:30:47 437.445
TISAT 1 29 Jan 11:23:05 11:24:22 11° 78° (ENE) 11:25:48 437.305
TIGRISAT 29 Jan 11:28:26 11:32:19 24° 271° (W) 11:36:07 435.000
ZACube-1 29 Jan 11:28:38 11:33:13 89° 289° (WNW) 11:37:39 437.345
BEESAT 3 29 Jan 11:29:27 11:32:30 19° 236° (SW) 11:35:27 437.485
HUMSAT D 29 Jan 11:30:47 11:35:05 65° 104° (ESE) 11:39:18 437.325/437.525
CUTE-I 29 Jan 11:32:25 11:34:42 13° 342° (NNW) 11:36:56 437.470
COMPASS 1 29 Jan 11:34:08 11:37:53 32° 304° (WNW) 11:41:35 437.405
DX 1 29 Jan 11:34:39 11:39:05 79° 292° (WNW) 11:43:30 434.975-435.025
NANOSAT C BR1 29 Jan 11:37:23 11:41:00 25° 269° (W) 11:44:37 145.865
Gurwin Techsat 1B 29 Jan 11:40:02 11:44:04 23° 41° (NE) 11:48:09 435.225
FUNcube-1 29 Jan 11:40:37 11:45:10 76° 291° (WNW) 11:49:34 145.935
AO-7 29 Jan 11:42:08 11:49:05 31° 17° (NNE) 11:56:03 29.400- 29.500
HO-68 29 Jan 11:42:20 11:49:13 52° 309° (NW) 11:56:05 435.675
CINEMA 3 29 Jan 11:47:01 11:51:47 44° 301° (WNW) 11:56:21 145.822/145.860
PCSat 29 Jan 11:47:03 11:52:33 84° 31° (NNE) 11:58:01 145.827
HORYU 2 29 Jan 11:49:04 11:50:49 12° 31° (NNE) 11:52:39 437.375
CANX-2 29 Jan 11:49:04 11:52:23 22° 311° (NW) 11:55:39 2200.000
GOMX 1 29 Jan 11:49:24 11:54:14 32° 310° (NW) 11:58:57 467.674
QB50P2 29 Jan 11:52:20 11:55:37 20° 273° (W) 11:58:52 145.880/145.840
BRITE-PL 29 Jan 11:54:38 11:59:23 27° 314° (NW) 12:04:02 437.365/2234.400
DELFI C3 29 Jan 11:54:42 11:58:33 41° 299° (WNW) 12:02:22 145.870
AISAT 29 Jan 11:59:39 12:04:14 86° 111° (ESE) 12:08:46 437.250
AAUSAT CUBESAT 2 29 Jan 12:00:33 12:03:58 24° 308° (NW) 12:07:19 437.432
DOVE 4 29 Jan 12:01:07 12:05:47 31° 309° (NW) 12:10:18 437.250
UWE-3 29 Jan 12:01:28 12:05:58 50° 298° (WNW) 12:10:19 435.000/436.395/437.385
QB50P1 29 Jan 12:02:02 12:05:03 18° 275° (W) 12:07:59 145.935-145.965
ESTCUBE 1 29 Jan 12:02:50 12:07:17 54° 101° (ESE) 12:11:46 437.505/2401.250
DANDE 29 Jan 12:03:28 12:09:42 23° 20° (NNE) 12:15:11 436.750
Oscar 19 29 Jan 12:03:45 12:08:50 56° 61° (ENE) 12:13:56 437.125/150
JAS-2 29 Jan 12:12:47 12:14:32 12° 15° (NNE) 12:16:22 435.910
BUGSAT 1 29 Jan 12:13:15 12:16:02 17° 276° (W) 12:18:47 437.445
CUTE 1.7 + AOD 2 29 Jan 12:13:28 12:16:21 18° 315° (NW) 12:19:10 437.475
Oscar 11 29 Jan 12:14:44 12:18:34 31° 305° (NW) 12:22:22 145.826/435.025
POLYITAN 1 29 Jan 12:17:45 12:20:11 14° 279° (W) 12:22:32 437.675
ITAMSAT 1 29 Jan 12:20:30 12:25:18 39° 54° (NE) 12:30:09 435.822/435.867
SPROUT 29 Jan 12:20:36 12:24:26 29° 92° (E) 12:28:15 437.525
UNISAT 6 29 Jan 12:24:47 12:26:14 11° 284° (WNW) 12:27:30 437.425
VELOX 1 29 Jan 12:27:57 12:32:26 65° 295° (WNW) 12:36:54 145.980
CUSAT 1 29 Jan 12:32:47 12:38:59 26° 30° (NNE) 12:44:14 437.405
AIST 1 29 Jan 12:34:28 12:38:45 81° 286° (WNW) 12:43:06
CUBEBUG 1 29 Jan 12:35:45 12:40:14 86° 108° (ESE) 12:44:43 437.445
POPSAT HIP 1 29 Jan 12:39:41 12:40:32 10° 284° (WNW) 12:41:13 437.405
50 SAT 29 Jan 12:41:27 12:45:26 48° 297° (WNW) 12:49:21 437.505
SEEDS 29 Jan 12:44:22 12:46:31 14° 321° (NW) 12:48:35 437.485
UKube-1 29 Jan 12:50:11 12:53:57 28° 308° (NW) 12:57:42 .
AIST 2 29 Jan 12:51:05 12:52:49 12° 244° (WSW) 12:54:25 435.215
Cubesat XI-IV 29 Jan 12:51:54 12:53:10 11° 3° (N) 12:54:27 437.490
GONETS M04 29 Jan 12:55:30 13:04:15 81° 259° (WSW) 13:12:56
TISAT 1 29 Jan 12:57:07 13:01:20 49° 101° (E) 13:05:32 437.305
CUBEBUG 2 29 Jan 12:58:37 13:02:24 24° 312° (NW) 13:06:03 437.445
SO-50 29 Jan 12:59:25 13:04:06 67° 147° (SSE) 13:08:57 436.795
ZACube-1 29 Jan 13:05:26 13:09:09 25° 310° (NW) 13:12:46 437.345
HUMSAT D 29 Jan 13:06:53 13:10:40 30° 305° (NW) 13:14:23 437.325/437.525
COMPASS 1 29 Jan 13:11:16 13:12:33 11° 325° (NW) 13:13:45 437.405
CUTE-I 29 Jan 13:11:17 13:12:44 11° 7° (N) 13:14:13 437.470
DX 1 29 Jan 13:11:23 13:14:51 22° 313° (NW) 13:18:14 434.975-435.025
FUNcube-1 29 Jan 13:17:27 13:20:57 22° 313° (NW) 13:24:20 145.935
Gurwin Techsat 1B 29 Jan 13:18:03 13:23:18 62° 63° (ENE) 13:28:35 435.225
RS-15 29 Jan 13:19:09 13:30:10 69° 222° (SW) 13:41:39 29.354- 29.394
HORYU 2 29 Jan 13:22:24 13:26:23 31° 53° (NE) 13:30:22 437.375
CINEMA 3 29 Jan 13:24:50 13:27:59 17° 323° (NW) 13:30:59 145.822/145.860
SWISSCUBE 29 Jan 13:26:32 13:30:34 26° 90° (E) 13:34:36 437.505
GOMX 1 29 Jan 13:28:02 13:30:58 15° 332° (NNW) 13:33:48 467.674
HO-68 29 Jan 13:30:01 13:35:45 27° 334° (NNW) 13:41:25 435.675
PCSat 29 Jan 13:30:40 13:35:42 39° 235° (SW) 13:40:42 145.827
DELFI C3 29 Jan 13:31:01 13:32:56 13° 320° (NW) 13:34:48 145.870
AO-7 29 Jan 13:32:29 13:40:26 51° 43° (NE) 13:48:25 29.400- 29.500
BRITE-PL 29 Jan 13:33:35 13:36:19 14° 337° (NNW) 13:38:59 437.365/2234.400
AISAT 29 Jan 13:36:41 13:40:29 27° 310° (NW) 13:44:13 437.250
UWE-3 29 Jan 13:38:41 13:41:41 17° 320° (NW) 13:44:33 435.000/436.395/437.385
DOVE 4 29 Jan 13:39:30 13:42:11 14° 332° (NNW) 13:44:46 437.250
ESTCUBE 1 29 Jan 13:39:55 13:44:07 37° 303° (WNW) 13:48:17 437.505/2401.250
BEESAT 29 Jan 13:42:14 13:46:29 31° 93° (E) 13:50:45 436.000
Oscar 19 29 Jan 13:43:29 13:48:25 42° 263° (W) 13:53:22 437.125/150
ITUPSAT 1 29 Jan 13:46:14 13:50:33 32° 94° (E) 13:54:52 437.325
DANDE 29 Jan 13:48:01 13:55:29 42° 48° (NE) 14:01:30 436.750
Oscar 11 29 Jan 13:52:14 13:53:39 11° 327° (NNW) 13:54:59 145.826/435.025
JAS-2 29 Jan 13:54:02 13:58:01 23° 41° (NE) 14:02:04 435.910
SPROUT 29 Jan 13:56:32 14:00:53 64° 294° (WNW) 14:05:13 437.525
ITAMSAT 1 29 Jan 13:59:32 14:04:41 63° 256° (WSW) 14:09:54 435.822/435.867
KKS-1 29 Jan 14:00:14 14:02:42 15° 81° (E) 14:05:17 437.445
VELOX 1 29 Jan 14:05:07 14:08:23 20° 316° (NW) 14:11:37 145.980
CUBEBUG 1 29 Jan 14:12:33 14:16:15 26° 309° (NW) 14:19:54 437.445
AIST 1 29 Jan 14:13:53 14:17:09 21° 310° (NW) 14:20:25
CUSAT 1 29 Jan 14:16:29 14:23:50 55° 57° (ENE) 14:29:31 437.405
50 SAT 29 Jan 14:17:27 14:19:46 15° 319° (NW) 14:22:00 437.505
UKube-1 29 Jan 14:27:38 14:28:58 11° 330° (NNW) 14:30:13 .
Cubesat XI-IV 29 Jan 14:28:18 14:31:21 16° 27° (NNE) 14:34:28 437.490
TISAT 1 29 Jan 14:33:06 14:37:07 38° 302° (WNW) 14:41:07 437.305
CUBEBUG 2 29 Jan 14:36:58 14:37:42 10° 335° (NNW) 14:38:21 437.445
SO-50 29 Jan 14:39:58 14:44:46 72° 351° (N) 14:49:40 436.795
ZACube-1 29 Jan 14:43:41 14:44:12 10° 333° (NNW) 14:44:38 437.345
HUMSAT D 29 Jan 14:44:04 14:45:21 11° 327° (NNW) 14:46:33 437.325/437.525
CUTE-I 29 Jan 14:47:33 14:50:59 18° 32° (NNE) 14:54:30 437.470
GONETS M04 29 Jan 14:52:46 15:00:04 31° 284° (WNW) 15:07:12
HORYU 2 29 Jan 14:58:20 15:02:50 68° 255° (WSW) 15:07:21 437.375
Gurwin Techsat 1B 29 Jan 14:58:39 15:03:37 38° 265° (W) 15:08:35 435.225
SWISSCUBE 29 Jan 15:04:10 15:08:59 79° 293° (WNW) 15:13:48 437.505
BRITE-PL 29 Jan 15:11:44 15:12:42 10° 1° (N) 15:13:41 437.365/2234.400
AISAT 29 Jan 15:14:38 15:15:51 11° 332° (NNW) 15:16:58 437.250
PCSat 29 Jan 15:16:02 15:17:52 11° 256° (WSW) 15:19:29 145.827
HO-68 29 Jan 15:16:32 15:21:30 21° 0° (N) 15:26:27 435.675
ESTCUBE 1 29 Jan 15:17:42 15:20:00 14° 325° (NW) 15:22:13 437.505/2401.250
BEESAT 29 Jan 15:19:59 15:24:45 67° 294° (WNW) 15:29:30 436.000
ITUPSAT 1 29 Jan 15:24:03 15:28:49 64° 296° (WNW) 15:33:34 437.325
AO-7 29 Jan 15:24:37 15:33:02 76° 248° (WSW) 15:41:28 29.400- 29.500
Oscar 19 29 Jan 15:27:51 15:29:20 11° 287° (WNW) 15:30:37 437.125/150
STARS 29 Jan 15:28:52 15:33:09 42° 98° (E) 15:37:24 437.465
RS-15 29 Jan 15:31:28 15:40:56 33° 250° (WSW) 15:50:31 29.354- 29.394
DANDE 29 Jan 15:31:55 15:39:46 79° 256° (WSW) 15:45:44 436.750
SPROUT 29 Jan 15:33:15 15:36:22 19° 315° (NW) 15:39:24 437.525
KKS-1 29 Jan 15:35:52 15:40:21 61° 104° (ESE) 15:44:50 437.445
JAS-2 29 Jan 15:37:16 15:42:30 69° 65° (ENE) 15:47:42 435.910
ITAMSAT 1 29 Jan 15:41:55 15:45:20 17° 279° (W) 15:48:37 435.822/435.867
CUBEBUG 1 29 Jan 15:50:40 15:51:22 10° 332° (NNW) 15:51:59 437.445
M-CUBED/EXP-1 PRIME 29 Jan 15:53:30 15:56:01 20° 99° (E) 15:58:34 437.505
CUSAT 1 29 Jan 15:59:56 16:06:58 52° 266° (W) 16:12:21 437.405
Cubesat XI-IV 29 Jan 16:05:26 16:10:12 35° 51° (NE) 16:15:03 437.490
TISAT 1 29 Jan 16:09:53 16:12:01 13° 323° (NW) 16:14:03 437.305
SO-50 29 Jan 16:20:48 16:25:39 76° 14° (NNE) 16:30:36 436.795
CUTE-I 29 Jan 16:25:00 16:29:59 42° 55° (NE) 16:35:03 437.470
AUBIESAT-1 29 Jan 16:26:10 16:29:13 33° 106° (ESE) 16:32:18 437.475
HORYU 2 29 Jan 16:37:32 16:40:25 16° 277° (W) 16:43:10 437.375
O/OREOS (USA 219) 29 Jan 16:40:27 16:44:10 26° 110° (ESE) 16:47:58 437.305
GOMX 1 29 Jan 16:40:55 16:43:02 12° 21° (NNE) 16:45:16 467.674
SWISSCUBE 29 Jan 16:42:29 16:46:21 24° 314° (NW) 16:50:09 437.505
BRITE-PL 29 Jan 16:46:15 16:49:07 15° 26° (NNE) 16:52:08 437.365/2234.400
DOVE 4 29 Jan 16:51:53 16:53:35 12° 20° (NNE) 16:55:22 437.250
GONETS M04 29 Jan 16:52:42 16:53:59 10° 311° (NW) 16:54:54
BEESAT 29 Jan 16:58:20 17:01:58 22° 317° (NW) 17:05:33 436.000
HO-68 29 Jan 17:01:34 17:07:15 27° 27° (NNE) 17:13:00 435.675
ITUPSAT 1 29 Jan 17:02:28 17:06:03 21° 317° (NW) 17:09:36 437.325
STARS 29 Jan 17:05:26 17:09:45 46° 300° (WNW) 17:14:01 437.465
KKS-1 29 Jan 17:12:45 17:16:52 34° 305° (NW) 17:20:55 437.445
DANDE 29 Jan 17:16:00 17:22:06 27° 283° (WNW) 17:27:03 436.750
MOZHAYETS 4 29 Jan 17:17:16 17:21:37 40° 97° (E) 17:25:57
AO-7 29 Jan 17:20:10 17:27:19 29° 274° (W) 17:34:20 29.400- 29.500
JAS-2 29 Jan 17:23:28 17:28:11 31° 268° (W) 17:32:49 435.910
SEEDS 29 Jan 17:27:50 17:28:28 10° 32° (NNE) 17:29:12 437.485
M-CUBED/EXP-1 PRIME 29 Jan 17:28:06 17:31:27 67° 301° (WNW) 17:34:46 437.505
CUBESAT XI-V 29 Jan 17:35:18 17:36:38 11° 75° (ENE) 17:38:09 437.345
CUSAT 1 29 Jan 17:44:06 17:48:17 17° 292° (WNW) 17:51:47 437.405
Cubesat XI-IV 29 Jan 17:44:41 17:50:02 76° 252° (WSW) 17:55:27 437.490
STRAND 1 29 Jan 17:51:04 17:52:56 12° 75° (ENE) 17:55:01 437.568
COMPASS 1 29 Jan 17:52:32 17:54:11 12° 37° (NE) 17:55:56 437.405
AUBIESAT-1 29 Jan 18:01:08 18:04:18 39° 307° (NW) 18:07:26 437.475
SO-50 29 Jan 18:01:26 18:06:14 57° 217° (SW) 18:11:05 436.795
CUTE-I 29 Jan 18:04:44 18:10:01 59° 257° (WSW) 18:15:21 437.470
CANX-2 29 Jan 18:06:36 18:09:24 17° 45° (NE) 18:12:16 2200.000
CINEMA 3 29 Jan 18:10:59 18:13:52 16° 35° (NE) 18:16:49 145.822/145.860
YUBILEINY 29 Jan 18:13:50 18:20:10 24° 69° (ENE) 18:26:44 435.215
GOMX 1 29 Jan 18:15:18 18:19:33 25° 44° (NE) 18:23:58 467.674
AAUSAT CUBESAT 2 29 Jan 18:17:34 18:19:55 15° 42° (NE) 18:22:21 437.432
O/OREOS (USA 219) 29 Jan 18:18:38 18:23:11 85° 312° (NW) 18:27:48 437.305
BRITE-PL 29 Jan 18:21:30 18:26:10 31° 49° (NE) 18:31:06 437.365/2234.400
SWISSCUBE 29 Jan 18:21:31 18:22:50 11° 337° (NNW) 18:24:04 437.505
UWE-3 29 Jan 18:23:58 18:25:43 12° 31° (NNE) 18:27:32 435.000/436.395/437.385
DOVE 4 29 Jan 18:25:41 18:29:45 23° 44° (NE) 18:33:55 437.250
CUTE 1.7 + AOD 2 29 Jan 18:30:04 18:33:19 22° 49° (NE) 18:36:37 437.475
Oscar 11 29 Jan 18:34:25 18:36:42 14° 39° (NE) 18:39:04 145.826/435.025
BEESAT 29 Jan 18:37:47 18:38:20 10° 340° (NNW) 18:38:51 436.000
ITUPSAT 1 29 Jan 18:42:11 18:42:27 10° 341° (NNW) 18:42:41 437.325
STARS 29 Jan 18:42:39 18:45:22 16° 321° (NW) 18:48:02 437.465
HO-68 29 Jan 18:46:56 18:53:48 53° 51° (NE) 19:00:43 435.675
KKS-1 29 Jan 18:50:22 18:52:27 13° 327° (NNW) 18:54:28 437.445
VELOX 1 29 Jan 18:51:52 18:52:50 11° 27° (NNE) 18:53:53 145.980
MOZHAYETS 4 29 Jan 18:54:34 18:59:01 48° 298° (WNW) 19:03:24
SEEDS 29 Jan 18:59:32 19:03:10 28° 54° (NE) 19:06:50 437.485
PRISM 29 Jan 19:02:28 19:06:28 44° 100° (E) 19:10:29 437.425
M-CUBED/EXP-1 PRIME 29 Jan 19:03:45 19:05:59 17° 322° (NW) 19:08:10 437.505
UKube-1 29 Jan 19:09:20 19:12:11 17° 41° (NE) 19:15:06 .
CUBESAT XI-V 29 Jan 19:10:52 19:15:23 45° 98° (E) 19:19:55 437.345
CUBEBUG 2 29 Jan 19:18:43 19:22:20 22° 46° (NE) 19:25:59 437.445
ZACube-1 29 Jan 19:24:37 19:27:50 19° 44° (NE) 19:31:07 437.345
HUMSAT D 29 Jan 19:25:00 19:27:13 14° 38° (NE) 19:29:30 437.325/437.525
COMPASS 1 29 Jan 19:25:05 19:28:56 36° 58° (ENE) 19:32:50 437.405
Cubesat XI-IV 29 Jan 19:27:03 19:31:06 21° 276° (W) 19:35:06 437.490
STRAND 1 29 Jan 19:28:37 19:33:35 45° 99° (E) 19:38:34 437.568
DX 1 29 Jan 19:30:00 19:33:22 22° 47° (NE) 19:36:48 434.975-435.025
FUNcube-1 29 Jan 19:36:05 19:39:31 21° 47° (NE) 19:43:01 145.935
AUBIESAT-1 29 Jan 19:37:02 19:38:33 12° 329° (NNW) 19:40:00 437.475
CANX-2 29 Jan 19:40:27 19:44:41 58° 66° (ENE) 19:48:56 2200.000
SO-50 29 Jan 19:42:29 19:46:04 20° 238° (WSW) 19:49:37 436.795
DELFI C3 29 Jan 19:43:54 19:47:17 26° 54° (NE) 19:50:43 145.870
CINEMA 3 29 Jan 19:45:20 19:49:59 39° 57° (ENE) 19:54:42 145.822/145.860
CUTE-I 29 Jan 19:47:55 19:51:20 16° 280° (W) 19:54:36 437.470
AAUSAT CUBESAT 2 29 Jan 19:50:45 19:54:48 48° 63° (ENE) 19:58:53 437.432
GOMX 1 29 Jan 19:51:40 19:56:57 69° 66° (ENE) 20:02:28 467.674
UWE-3 29 Jan 19:56:59 20:01:04 30° 53° (NE) 20:05:10 435.000/436.395/437.385
AISAT 29 Jan 19:57:11 20:00:24 20° 44° (NE) 20:03:42 437.250
BRITE-PL 29 Jan 19:58:49 20:04:11 90° 87° (E) 20:09:54 437.365/2234.400
O/OREOS (USA 219) 29 Jan 19:58:59 20:03:10 34° 336° (NNW) 20:07:22 437.305
DOVE 4 29 Jan 20:01:35 20:06:46 65° 66° (ENE) 20:12:06 437.250
ESTCUBE 1 29 Jan 20:02:43 20:05:11 15° 37° (NE) 20:07:43 437.505/2401.250
CUTE 1.7 + AOD 2 29 Jan 20:04:28 20:08:47 80° 70° (ENE) 20:13:05 437.475
YUBILEINY 29 Jan 20:06:58 20:15:30 65° 95° (E) 20:24:08 435.215
Oscar 11 29 Jan 20:07:53 20:12:00 42° 60° (ENE) 20:16:08 145.826/435.025
VELOX 1 29 Jan 20:24:29 20:28:10 26° 50° (NE) 20:31:55 145.980
50 SAT 29 Jan 20:30:17 20:33:35 24° 51° (NE) 20:36:55 437.505
CUBEBUG 1 29 Jan 20:32:08 20:35:07 18° 43° (NE) 20:38:11 437.445
MOZHAYETS 4 29 Jan 20:32:32 20:35:24 16° 320° (NW) 20:38:11
HO-68 29 Jan 20:34:27 20:41:33 63° 255° (WSW) 20:48:41 435.675
SEEDS 29 Jan 20:34:29 20:38:45 70° 255° (WSW) 20:43:01 437.485
PRISM 29 Jan 20:38:08 20:42:01 40° 301° (WNW) 20:45:55 437.425
UKube-1 29 Jan 20:43:23 20:47:38 55° 63° (ENE) 20:51:56 .
CUBESAT XI-V 29 Jan 20:48:26 20:52:55 45° 299° (WNW) 20:57:23 437.345
TISAT 1 29 Jan 20:52:22 20:54:03 12° 35° (NE) 20:55:49 437.305
AIST 1 29 Jan 20:52:51 20:56:21 23° 53° (NE) 20:59:54
CUBEBUG 2 29 Jan 20:53:39 20:58:25 69° 67° (ENE) 21:03:12 437.445
HUMSAT D 29 Jan 20:58:01 21:02:07 41° 60° (ENE) 21:06:14 437.325/437.525
ZACube-1 29 Jan 20:58:58 21:03:32 60° 65° (ENE) 21:08:05 437.345
COMPASS 1 29 Jan 21:00:28 21:04:36 51° 259° (W) 21:08:45 437.405
DX 1 29 Jan 21:04:44 21:09:07 78° 68° (ENE) 21:13:32 434.975-435.025
STRAND 1 29 Jan 21:07:56 21:12:56 51° 301° (WNW) 21:17:55 437.568
FUNcube-1 29 Jan 21:10:42 21:15:18 71° 68° (ENE) 21:19:54 145.935
CANX-2 29 Jan 21:17:05 21:20:56 30° 267° (W) 21:24:45 2200.000
DELFI C3 29 Jan 21:18:09 21:22:15 75° 256° (WSW) 21:26:20 145.870
CINEMA 3 29 Jan 21:22:05 21:27:04 61° 258° (WSW) 21:32:07 145.822/145.860
AAUSAT CUBESAT 2 29 Jan 21:26:43 21:30:38 36° 264° (W) 21:34:33 437.432
GOMX 1 29 Jan 21:30:39 21:35:30 35° 269° (W) 21:40:31 467.674
AISAT 29 Jan 21:31:57 21:36:23 64° 65° (ENE) 21:40:53 437.250
UWE-3 29 Jan 21:32:35 21:37:19 76° 254° (WSW) 21:42:03 435.000/436.395/437.385
SWISSCUBE 29 Jan 21:33:03 21:34:41 12° 26° (NNE) 21:36:24 437.505
ESTCUBE 1 29 Jan 21:36:54 21:41:07 42° 59° (ENE) 21:45:24 437.505/2401.250
BRITE-PL 29 Jan 21:38:56 21:43:28 27° 275° (W) 21:48:08 437.365/2234.400
O/OREOS (USA 219) 29 Jan 21:39:56 21:43:45 25° 0° (N) 21:47:36 437.305
DOVE 4 29 Jan 21:40:04 21:44:54 36° 268° (W) 21:49:50 437.250
CUTE 1.7 + AOD 2 29 Jan 21:41:49 21:45:16 22° 272° (W) 21:48:39 437.475
Oscar 11 29 Jan 21:44:03 21:48:14 44° 262° (W) 21:52:26 145.826/435.025
BEESAT 29 Jan 21:48:09 21:50:12 13° 29° (NNE) 21:52:19 436.000
SPROUT 29 Jan 21:50:40 21:54:02 23° 49° (NE) 21:57:28 437.525
ITUPSAT 1 29 Jan 21:52:15 21:54:24 13° 29° (NNE) 21:56:39 437.325
VELOX 1 29 Jan 21:59:53 22:04:22 86° 252° (WSW) 22:08:54 145.980
QB50P1 29 Jan 22:01:18 22:01:31 10° 76° (ENE) 22:01:54 145.935-145.965
50 SAT 29 Jan 22:04:09 22:08:19 87° 252° (WSW) 22:12:30 437.505
YUBILEINY 29 Jan 22:04:15 22:12:45 53° 301° (WNW) 22:21:19 435.215
CUBEBUG 1 29 Jan 22:06:30 22:10:49 60° 65° (ENE) 22:15:12 437.445
SEEDS 29 Jan 22:12:46 22:15:25 16° 277° (W) 22:17:59 437.485
PRISM 29 Jan 22:14:39 22:16:40 13° 323° (NW) 22:18:37 437.425
POLYITAN 1 29 Jan 22:15:01 22:17:03 13° 80° (E) 22:19:12 437.675
UKube-1 29 Jan 22:20:04 22:24:03 33° 265° (W) 22:28:02 .
UNISAT 6 29 Jan 22:24:59 22:28:29 22° 87° (E) 22:32:00 437.425
TISAT 1 29 Jan 22:24:59 22:28:51 34° 56° (ENE) 22:32:46 437.305
HO-68 29 Jan 22:25:34 22:30:53 21° 280° (W) 22:36:02 435.675
CUBESAT XI-V 29 Jan 22:26:37 22:29:27 16° 322° (NW) 22:32:14 437.345
AIST 1 29 Jan 22:30:15 22:34:37 86° 256° (WSW) 22:38:59
CUBEBUG 2 29 Jan 22:31:17 22:35:33 30° 269° (W) 22:39:45 437.445
HUMSAT D 29 Jan 22:33:43 22:37:56 46° 261° (W) 22:42:09 437.325/437.525
POPSAT HIP 1 29 Jan 22:34:10 22:37:04 18° 84° (E) 22:40:03 437.405
ZACube-1 29 Jan 22:36:00 22:40:13 33° 267° (W) 22:44:23 437.345
DUCHIFAT 1 29 Jan 22:36:25 22:39:22 18° 85° (E) 22:42:24 145.980
COMPASS 1 29 Jan 22:39:54 22:41:25 11° 282° (WNW) 22:42:46 437.405
DX 1 29 Jan 22:42:18 22:45:54 24° 270° (W) 22:49:29 434.975-435.025
STRAND 1 29 Jan 22:47:39 22:51:16 19° 323° (NW) 22:54:49 437.568
FUNcube-1 29 Jan 22:48:04 22:52:05 28° 269° (W) 22:56:03 145.935
DELFI C3 29 Jan 22:55:40 22:58:15 16° 276° (W) 23:00:44 145.870
ANTELSAT 29 Jan 23:00:45 23:05:00 37° 95° (E) 23:09:08 437.575/2403.000
CINEMA 3 29 Jan 23:02:10 23:05:22 16° 281° (W) 23:08:28 145.822/145.860
SWISSCUBE 29 Jan 23:07:17 23:11:15 27° 49° (NE) 23:15:16 437.505
TIGRISAT 29 Jan 23:08:05 23:12:25 41° 97° (E) 23:16:38 435.000
AISAT 29 Jan 23:09:25 23:13:23 30° 267° (W) 23:17:22 437.250
NANOSAT C BR1 29 Jan 23:10:45 23:14:36 30° 93° (E) 23:18:26 145.865
UWE-3 29 Jan 23:11:17 23:14:41 19° 276° (W) 23:17:59 435.000/436.395/437.385
ESTCUBE 1 29 Jan 23:13:41 23:18:03 47° 260° (W) 23:22:26 437.505/2401.250
O/OREOS (USA 219) 29 Jan 23:20:06 23:24:19 35° 25° (NNE) 23:28:34 437.305
BEESAT 29 Jan 23:22:42 23:26:50 31° 51° (NE) 23:31:02 436.000
SPROUT 29 Jan 23:25:19 23:29:40 83° 70° (ENE) 23:34:03 437.525
Oscar 11 29 Jan 23:25:22 23:25:40 10° 284° (WNW) 23:25:47 145.826/435.025
QB50P2 29 Jan 23:25:23 23:29:28 38° 97° (E) 23:33:32 145.880/145.840
ITUPSAT 1 29 Jan 23:26:56 23:31:08 32° 52° (NE) 23:35:23 437.325
STARS 29 Jan 23:27:29 23:29:25 13° 33° (NNE) 23:31:25 437.465
KKS-1 29 Jan 23:34:16 23:36:59 16° 39° (NE) 23:39:47 437.445
QB50P1 29 Jan 23:34:28 23:38:38 44° 99° (E) 23:42:47 145.935-145.965
VELOX 1 29 Jan 23:38:18 23:41:40 20° 273° (W) 23:44:59 145.980
50 SAT 29 Jan 23:41:05 23:44:06 19° 274° (W) 23:47:01 437.505
BUGSAT 1 29 Jan 23:42:40 23:46:46 42° 98° (E) 23:50:53 437.445
CUBEBUG 1 29 Jan 23:43:35 23:47:31 31° 266° (W) 23:51:28 437.445
M-CUBED/EXP-1 PRIME 29 Jan 23:45:22 23:47:03 13° 32° (NNE) 23:48:47 437.505
POLYITAN 1 29 Jan 23:49:42 23:54:01 57° 102° (ESE) 23:58:17 437.675
TISAT 1 30 Jan 00:00:20 00:04:33 57° 258° (WSW) 00:08:50 437.305
UNISAT 6 30 Jan 00:01:21 00:05:57 87° 290° (WNW) 00:10:24 437.425
YUBILEINY 30 Jan 00:04:51 00:11:59 26° 331° (NNW) 00:19:06 435.215
AIST 1 30 Jan 00:08:41 00:11:45 19° 277° (W) 00:14:44
POPSAT HIP 1 30 Jan 00:09:23 00:13:45 78° 106° (ESE) 00:18:05 437.405
DUCHIFAT 1 30 Jan 00:11:37 00:15:59 80° 105° (ESE) 00:20:19 145.980
HUMSAT D 30 Jan 00:13:50 00:14:55 11° 283° (WNW) 00:15:49 437.325/437.525
GONETS M04 30 Jan 00:15:34 00:22:32 29° 74° (ENE) 00:29:39
AUBIESAT-1 30 Jan 00:17:04 00:19:27 17° 39° (NE) 00:21:47 437.475
STRAND 1 30 Jan 00:27:38 00:28:47 11° 347° (NNW) 00:29:53 437.568
ANTELSAT 30 Jan 00:37:33 00:42:00 52° 298° (WNW) 00:46:20 437.575/2403.000
SWISSCUBE 30 Jan 00:43:55 00:48:42 90° 226° (SW) 00:53:33 437.505
TIGRISAT 30 Jan 00:44:54 00:49:19 47° 299° (WNW) 00:53:35 435.000
NANOSAT C BR1 30 Jan 00:46:30 00:50:47 60° 295° (WNW) 00:55:03 145.865
ISS 30 Jan 00:54:14 00:55:48 13° 173° (S) 00:57:22 145.825
ESTCUBE 1 30 Jan 00:54:40 00:56:09 11° 283° (WNW) 00:57:28 437.505/2401.250
BEESAT 30 Jan 00:59:38 01:04:25 76° 254° (WSW) 01:09:14 436.000
O/OREOS (USA 219) 30 Jan 00:59:39 01:04:17 87° 51° (NE) 01:08:54 437.305
STARS 30 Jan 01:00:49 01:04:50 34° 55° (NE) 01:08:53 437.465
QB50P2 30 Jan 01:01:21 01:05:32 48° 298° (WNW) 01:09:41 145.880/145.840
SPROUT 30 Jan 01:02:52 01:06:21 22° 272° (W) 01:09:46 437.525
ITUPSAT 1 30 Jan 01:04:00 01:08:47 73° 253° (WSW) 01:13:36 437.325
KKS-1 30 Jan 01:08:28 01:12:48 47° 60° (ENE) 01:17:09 437.445
QB50P1 30 Jan 01:10:28 01:14:34 42° 300° (WNW) 01:18:39 145.935-145.965
M-CUBED/EXP-1 PRIME 30 Jan 01:17:55 01:21:24 40° 53° (NE) 01:24:43 437.505
BUGSAT 1 30 Jan 01:18:15 01:22:19 43° 300° (WNW) 01:26:24 437.445
MOZHAYETS 4 30 Jan 01:19:44 01:21:33 12° 32° (NNE) 01:23:27
Gurwin Techsat 1B 30 Jan 01:24:44 01:26:19 11° 73° (ENE) 01:28:08 435.225
POLYITAN 1 30 Jan 01:25:52 01:29:50 34° 304° (WNW) 01:33:45 437.675
UNISAT 6 30 Jan 01:38:35 01:42:18 25° 311° (NW) 01:45:54 437.425
TISAT 1 30 Jan 01:39:21 01:41:25 13° 280° (W) 01:43:20 437.305
Oscar 19 30 Jan 01:43:22 01:48:06 35° 94° (E) 01:52:49 437.125/150
POPSAT HIP 1 30 Jan 01:45:39 01:49:21 27° 308° (NW) 01:52:59 437.405
DUCHIFAT 1 30 Jan 01:47:52 01:51:31 26° 308° (NW) 01:55:07 145.980
AUBIESAT-1 30 Jan 01:50:16 01:53:56 63° 59° (ENE) 01:57:24 437.475
CUSAT 1 30 Jan 01:59:41 02:02:48 13° 64° (ENE) 02:06:12 437.405
ITAMSAT 1 30 Jan 02:01:19 02:05:27 23° 87° (E) 02:09:39 435.822/435.867
STRAND 1 30 Jan 02:04:58 02:05:56 11° 12° (NNE) 02:06:58 437.568
YUBILEINY 30 Jan 02:06:20 02:12:34 21° 3° (N) 02:18:51 435.215
GONETS M04 30 Jan 02:09:31 02:18:14 76° 100° (E) 02:26:57
ANTELSAT 30 Jan 02:15:02 02:18:00 17° 320° (NW) 02:20:52 437.575/2403.000
TIGRISAT 30 Jan 02:22:22 02:25:12 16° 321° (NW) 02:27:54 435.000
NANOSAT C BR1 30 Jan 02:23:02 02:26:00 18° 316° (NW) 02:28:54 145.865
SWISSCUBE 30 Jan 02:23:29 02:27:17 23° 273° (W) 02:31:01 437.505
ISS 30 Jan 02:30:04 02:31:20 12° 193° (SSW) 02:32:34 145.825
STARS 30 Jan 02:36:43 02:41:10 62° 257° (WSW) 02:45:38 437.465
QB50P2 30 Jan 02:38:03 02:40:38 16° 320° (NW) 02:43:10 145.880/145.840
O/OREOS (USA 219) 30 Jan 02:39:29 02:43:17 26° 251° (WSW) 02:47:03 437.305
BEESAT 30 Jan 02:39:41 02:43:07 19° 275° (W) 02:46:29 436.000
HORYU 2 30 Jan 02:40:06 02:42:07 13° 80° (E) 02:44:15 437.375
ITUPSAT 1 30 Jan 02:44:15 02:47:36 18° 276° (W) 02:50:50 437.325
KKS-1 30 Jan 02:45:15 02:49:33 42° 262° (W) 02:53:52 437.445
QB50P1 30 Jan 02:47:14 02:49:34 14° 322° (NW) 02:51:51 145.935-145.965
M-CUBED/EXP-1 PRIME 30 Jan 02:52:55 02:56:29 39° 252° (WSW) 02:59:50 437.505
MOZHAYETS 4 30 Jan 02:53:35 02:57:39 32° 55° (NE) 03:01:45
BUGSAT 1 30 Jan 02:54:38 02:56:59 14° 321° (NW) 02:59:16 437.445
PRISM 30 Jan 02:56:39 02:57:56 11° 34° (NNE) 02:59:18 437.425
BEESAT 2 30 Jan 02:57:42 03:00:36 19° 123° (ESE) 03:03:35 435.950
AIST 2 30 Jan 02:59:35 03:01:07 12° 116° (ESE) 03:02:47 435.215
Gurwin Techsat 1B 30 Jan 03:02:49 03:07:54 42° 97° (E) 03:12:58 435.225
POLYITAN 1 30 Jan 03:02:54 03:04:45 12° 326° (NW) 03:06:32 437.675
BEESAT 3 30 Jan 03:10:23 03:13:41 23° 127° (SE) 03:17:03 437.485
DANDE 30 Jan 03:13:04 03:19:46 27° 78° (ENE) 03:26:23 436.750
AO-7 30 Jan 03:13:56 03:19:53 21° 78° (ENE) 03:26:01 29.400- 29.500
CUBESAT XI-V 30 Jan 03:14:01 03:16:12 13° 34° (NE) 03:18:30 437.345
UNISAT 6 30 Jan 03:17:04 03:17:45 10° 334° (NNW) 03:18:21 437.425
Oscar 19 30 Jan 03:22:41 03:27:51 65° 296° (WNW) 03:32:57 437.125/150
POPSAT HIP 1 30 Jan 03:23:13 03:24:03 10° 330° (NNW) 03:24:49 437.405
DUCHIFAT 1 30 Jan 03:25:34 03:26:10 10° 330° (NNW) 03:26:41 145.980
AUBIESAT-1 30 Jan 03:26:07 03:29:12 24° 258° (WSW) 03:32:06 437.475
CUSAT 1 30 Jan 03:36:35 03:43:57 36° 86° (E) 03:50:58 437.405
STRAND 1 30 Jan 03:39:58 03:43:26 19° 36° (NE) 03:46:58 437.568
ITAMSAT 1 30 Jan 03:40:29 03:45:46 85° 112° (ESE) 03:51:02 435.822/435.867
RS-15 30 Jan 03:59:58 04:06:58 21° 99° (E) 04:14:28 29.354- 29.394
YUBILEINY 30 Jan 04:05:30 04:12:57 30° 35° (NE) 04:20:30 435.215
GONETS M04 30 Jan 04:07:29 04:15:51 46° 306° (NW) 04:24:11
HORYU 2 30 Jan 04:15:27 04:19:53 55° 102° (ESE) 04:24:16 437.375
STARS 30 Jan 04:16:03 04:18:37 15° 279° (W) 04:21:05 437.465
JAS-2 30 Jan 04:18:32 04:22:48 23° 86° (E) 04:27:28 435.910
PCSat 30 Jan 04:24:02 04:27:45 19° 112° (ESE) 04:31:35 145.827
PRISM 30 Jan 04:28:46 04:32:27 32° 55° (NE) 04:36:09 437.425
MOZHAYETS 4 30 Jan 04:30:07 04:34:41 67° 256° (WSW) 04:39:17
BEESAT 2 30 Jan 04:34:03 04:38:11 59° 144° (SE) 04:42:20 435.950
AIST 2 30 Jan 04:34:46 04:38:48 40° 136° (SE) 04:42:53 435.215
Gurwin Techsat 1B 30 Jan 04:42:53 04:48:07 56° 299° (WNW) 04:53:19 435.225
BEESAT 3 30 Jan 04:47:10 04:51:20 71° 149° (SSE) 04:55:31 437.485
CUBESAT XI-V 30 Jan 04:48:23 04:52:35 36° 56° (ENE) 04:56:51 437.345
DANDE 30 Jan 04:53:39 05:02:12 67° 100° (E) 05:10:21 436.750
Oscar 19 30 Jan 05:02:29 05:06:31 23° 318° (NW) 05:10:26 437.125/150
AO-7 30 Jan 05:06:28 05:14:45 59° 104° (ESE) 05:22:58 29.400- 29.500
STRAND 1 30 Jan 05:16:48 05:21:43 49° 59° (ENE) 05:26:41 437.568
CUSAT 1 30 Jan 05:17:54 05:26:27 87° 107° (ESE) 05:34:20 437.405
ITAMSAT 1 30 Jan 05:20:19 05:24:53 31° 311° (NW) 05:29:26 435.822/435.867
Cubesat XI-IV 30 Jan 05:51:04 05:55:05 21° 84° (E) 05:59:12 437.490
HORYU 2 30 Jan 05:52:20 05:56:28 37° 304° (NW) 06:00:33 437.375
YUBILEINY 30 Jan 06:03:04 06:11:48 64° 64° (ENE) 06:20:33 435.215
JAS-2 30 Jan 06:03:22 06:08:48 82° 108° (ESE) 06:14:48 435.910
PRISM 30 Jan 06:03:46 06:07:50 58° 256° (WSW) 06:11:55 437.425
PCSat 30 Jan 06:04:59 06:10:18 59° 135° (SE) 06:15:40 145.827
RS-15 30 Jan 06:06:26 06:16:46 53° 126° (SE) 06:27:24 29.354- 29.394
GONETS M04 30 Jan 06:08:32 06:15:24 24° 337° (NNW) 06:22:11
MOZHAYETS 4 30 Jan 06:09:58 06:12:52 16° 279° (W) 06:15:40
CUTE-I 30 Jan 06:10:35 06:15:06 27° 89° (E) 06:19:41 437.470
BEESAT 2 30 Jan 06:12:14 06:16:26 69° 347° (NNW) 06:20:40 435.950
AIST 2 30 Jan 06:12:55 06:17:16 83° 341° (NNW) 06:21:37 435.215
Gurwin Techsat 1B 30 Jan 06:23:19 06:27:16 21° 322° (NW) 06:31:08 435.225
CUBESAT XI-V 30 Jan 06:25:21 06:29:55 59° 258° (WSW) 06:34:33 437.345
BEESAT 3 30 Jan 06:25:26 06:29:36 65° 351° (N) 06:33:47 437.485
DANDE 30 Jan 06:37:30 06:46:04 56° 302° (WNW) 06:54:01 436.750
Oscar 19 30 Jan 06:42:31 06:44:17 12° 342° (NNW) 06:45:59 437.125/150
STRAND 1 30 Jan 06:56:05 07:01:01 47° 260° (W) 07:06:01 437.568
AO-7 30 Jan 06:59:34 07:07:47 62° 310° (NW) 07:15:56 29.400- 29.500
ITAMSAT 1 30 Jan 07:00:22 07:03:06 14° 334° (NNW) 07:05:45 435.822/435.867
ANTELSAT 30 Jan 07:01:06 07:02:54 12° 31° (NNE) 07:04:47 437.575/2403.000
CUSAT 1 30 Jan 07:02:17 07:10:19 43° 310° (NW) 07:17:32 437.405
TIGRISAT 30 Jan 07:07:56 07:09:56 13° 33° (NNE) 07:12:02 435.000
QB50P2 30 Jan 07:21:58 07:22:58 11° 31° (NNE) 07:24:03 145.880/145.840
HORYU 2 30 Jan 07:29:54 07:32:08 14° 326° (NW) 07:34:17 437.375
QB50P1 30 Jan 07:30:22 07:31:48 12° 33° (NNE) 07:33:19 145.935-145.965
Cubesat XI-IV 30 Jan 07:30:43 07:36:08 76° 106° (ESE) 07:41:33 437.490
BUGSAT 1 30 Jan 07:37:08 07:38:04 11° 32° (NNE) 07:39:04 437.445
PRISM 30 Jan 07:42:26 07:44:19 13° 279° (W) 07:46:06 437.425
GOMX 1 30 Jan 07:43:54 07:46:22 13° 72° (ENE) 07:49:00 467.674
POLYITAN 1 30 Jan 07:45:01 07:47:07 14° 37° (NE) 07:49:18 437.675
PCSat 30 Jan 07:48:22 07:53:48 67° 338° (NNW) 07:59:16 145.827
JAS-2 30 Jan 07:48:55 07:53:40 33° 310° (NW) 07:58:45 435.910
HO-68 30 Jan 07:50:19 07:54:54 18° 76° (ENE) 07:59:42 435.675
CUTE-I 30 Jan 07:50:28 07:55:53 86° 295° (WNW) 08:01:18 437.470
BEESAT 2 30 Jan 07:50:47 07:55:00 66° 10° (N) 07:59:12 435.950
AIST 2 30 Jan 07:51:51 07:56:10 62° 1° (N) 08:00:28 435.215
DOVE 4 30 Jan 07:51:56 07:53:20 11° 71° (ENE) 07:54:57 437.250
BRITE-PL 30 Jan 07:53:03 07:57:05 20° 79° (E) 08:01:11 437.365/2234.400
UNISAT 6 30 Jan 07:59:17 08:02:45 21° 45° (NE) 08:06:14 437.425
YUBILEINY 30 Jan 08:00:13 08:08:39 53° 270° (W) 08:17:03 435.215
POPSAT HIP 1 30 Jan 08:03:44 08:06:21 16° 41° (NE) 08:09:03 437.405
Gurwin Techsat 1B 30 Jan 08:03:49 08:05:33 12° 346° (NNW) 08:07:14 435.225
BEESAT 3 30 Jan 08:03:52 08:08:04 70° 14° (NNE) 08:12:16 437.485
DUCHIFAT 1 30 Jan 08:05:42 08:08:20 16° 41° (NE) 08:11:03 145.980
CUBESAT XI-V 30 Jan 08:05:49 08:08:27 14° 281° (W) 08:10:56 437.345
GONETS M04 30 Jan 08:09:47 08:16:04 21° 9° (N) 08:22:22
SEEDS 30 Jan 08:09:49 08:11:15 12° 78° (ENE) 08:12:50 437.485
RS-15 30 Jan 08:17:33 08:28:32 90° 157° (SSE) 08:39:55 29.354- 29.394
DANDE 30 Jan 08:24:00 08:31:19 29° 327° (NNW) 08:37:57 436.750
COMPASS 1 30 Jan 08:34:05 08:36:33 15° 83° (E) 08:39:07 437.405
ANTELSAT 30 Jan 08:34:27 08:38:33 31° 53° (NE) 08:42:38 437.575/2403.000
STRAND 1 30 Jan 08:39:23 08:41:39 13° 284° (WNW) 08:43:44 437.568
NANOSAT C BR1 30 Jan 08:39:27 08:42:51 24° 50° (NE) 08:46:19 145.865
ITAMSAT 1 30 Jan 08:40:08 08:40:40 10° 359° (N) 08:41:11 435.822/435.867
